[[{"header":{"parameterUnit":"m.s-1","parameterCategory":1,"la1":30.2991,"la2":30.254,"lo1":-89.0895,"lo2":-89.0444,"dy":0.0017,"dx":0.0017,"nx":28,"ny":28,"refTime":"2024-07-31T09:00:00:Z","depth":0,"parameterNumber":2,"parameterNumberName":"U-component_of_WINDS"},"data":[0,0,0,0,0,0,0,0,0,0,0,0,0,0,0,0,0,0,0,0,0,0,0,0,0,0,0,0,0,0,0,0,0,0,0,0,0,0,0,0,0,0,0,0,0,0,0,0,0,0,0,0,0,0,0,0,0,0,2.7126,2.7127,0,2.7175,2.7176,2.7176,2.7114,2.7112,2.711,2.7107,2.7159,2.7163,2.7166,0,0,0,0,0,0,0,0,0,0,0,0,0,2.6981,2.6984,2.7126,2.7127,2.7127,2.7175,2.7176,2.7176,2.7115,2.7112,2.7109,2.7106,2.7158,2.7162,2.7166,0,0,0,0,0,0,0,0,0,0,0,0,0,2.7039,2.6985,2.7126,2.7102,2.7101,2.7175,2.7176,2.7176,2.7115,2.7112,2.7108,2.7105,2.7157,2.7162,2.7167,2.7267,0,0,2.7183,2.7185,0,0,0,0,0,0,0,0,2.7036,2.7044,2.7105,2.7104,2.7102,2.7135,2.7143,2.7207,2.7116,2.711,2.7107,2.7103,2.7154,2.7159,2.7176,2.727,2.7272,2.7183,2.7187,2.7189,2.719,0,0,0,0,0,0,0,2.7032,2.7042,2.7145,2.7106,2.7104,2.709,2.7094,2.7155,2.715,2.711,2.7106,2.7112,2.7153,2.7171,2.7177,2.7273,2.7183,2.7188,2.7191,2.7193,2.7452,2.7456,0,0,0,0,0,0,2.703,2.7039,2.7144,2.7147,2.706,2.7095,2.71,2.7128,2.715,2.7149,2.7115,2.7109,2.7164,2.7171,2.7178,2.7297,2.7189,2.7194,2.7197,2.7449,2.7453,2.7457,0,0,0,0,0,0,2.7027,2.704,2.7142,2.7092,2.7103,2.7101,2.7133,2.7131,2.7149,2.7153,2.7152,2.7135,2.7161,2.7171,2.7246,2.7298,2.7196,2.7201,2.7444,2.745,2.7455,2.7537,0,0,0,0,0,0,2.7023,2.7039,2.7077,2.7093,2.7106,2.7208,2.7136,2.7134,2.7158,2.7151,2.7171,2.7172,2.7159,2.7238,2.7251,2.7304,2.7205,2.7439,2.7447,2.7453,2.7529,2.7544,2.7557,0,0,0,0,0,2.7018,2.7098,2.7079,2.7092,2.7153,2.7211,2.7219,2.7203,2.7162,2.7201,2.7204,2.7171,2.7291,2.7246,2.726,2.7315,2.7436,2.7445,2.7453,2.7523,2.7541,2.7557,0,0,0,0,0,0,2.7089,2.71,2.7079,2.7166,2.7188,2.7201,2.7248,2.7223,2.7257,2.7249,2.7228,2.7233,2.7313,2.7322,2.7272,2.7414,2.7357,2.7368,2.7405,2.7423,2.7437,2.7433,2.7209,0,0,0,0,0,2.7114,2.716,2.7167,2.7244,2.7256,2.725,2.7275,2.7261,2.7283,2.7292,2.73,2.7324,2.7367,2.7395,2.7435,2.753,2.7534,2.7575,2.7589,2.7601,2.7611,2.7663,2.7681,2.7485,2.7485,2.7485,0,0,2.7168,2.7179,2.7209,2.7258,2.7273,2.7322,2.7258,2.7312,2.7348,2.73,2.7371,2.7379,2.7403,2.7489,2.7527,2.7499,2.7666,2.7612,2.7621,2.7625,2.7673,2.7692,2.7708,2.749,2.7489,2.7489,0,0,2.7289,2.7303,2.7368,2.7385,2.7409,2.7405,2.7421,2.7438,2.7441,2.7511,2.7477,2.752,2.7594,2.7613,2.7633,2.7763,2.7735,2.7777,2.785,2.7901,2.7916,2.793,2.7977,2.7994,2.7787,2.7788,2.7788,0,2.7353,2.7424,2.7405,2.7461,2.7484,2.7443,2.7509,2.7527,2.7563,2.758,2.7548,2.764,2.7654,2.7744,2.7776,2.7793,2.7811,2.7774,2.7916,2.7929,2.7942,2.7986,2.8004,2.7792,2.7792,2.7791,2.7791,0,2.7501,2.755,2.76,2.7636,2.7665,2.7726,2.7717,2.7748,2.7732,2.7732,2.7805,2.782,2.7863,2.7883,2.7868,2.7972,2.7953,2.7919,2.786,2.7966,2.8007,2.8024,2.78,2.7798,2.7796,2.7795,0,0,2.7667,2.7692,2.7711,2.7727,2.7751,2.779,2.785,2.7891,2.7918,2.7945,2.7995,2.8059,2.8028,2.805,2.8037,2.8082,2.8185,2.8042,2.8042,2.8068,2.83,2.8326,2.8346,2.8166,2.8169,2.8172,2.8298,0,2.7789,2.7892,2.7877,2.7976,2.8023,2.7985,2.8037,2.8059,2.806,2.81,2.8102,2.8148,2.8103,2.8117,2.8159,2.8163,2.8231,2.8154,2.8213,2.8215,2.8207,2.8367,2.8394,2.8513,2.8314,2.8317,2.8319,0,2.7945,2.7977,2.8081,2.8099,2.8118,2.8165,2.8202,2.824,2.8264,2.8262,2.8288,2.8267,2.8328,2.8269,2.8353,2.8301,2.8324,2.833,2.8334,2.8339,2.8273,2.8376,2.855,2.8568,2.8344,2.8342,2.834,0,2.8056,2.8126,2.8197,2.8212,2.8234,2.8268,2.828,2.83,2.8326,2.8358,2.8375,2.8415,2.8437,2.8468,2.8459,2.8417,2.8545,2.8485,2.8546,2.8546,2.8574,2.8572,2.8754,2.859,2.8589,2.8589,2.8589,0,2.8194,2.8259,2.8247,2.8291,2.8363,2.8346,2.8418,2.8425,2.8444,2.8489,2.8459,2.8502,2.8487,2.853,2.8523,2.8594,2.8604,2.8604,2.8602,2.8607,2.8607,2.8622,2.8613,2.8594,2.8593,2.8592,2.8591,0,2.833,2.8324,2.84,2.8415,2.8421,2.8473,2.8487,2.8528,2.8528,2.8585,2.8598,2.8598,2.8647,2.8641,2.8695,2.869,2.8778,2.8766,2.877,2.8767,2.8828,2.8822,2.9025,2.9051,2.8871,2.8872,2.8874,0,2.8418,2.8467,2.8488,2.8515,2.8529,2.8574,2.8601,2.8587,2.8615,2.8647,2.8685,2.8731,2.8766,2.8846,2.8851,2.8893,2.8881,2.895,2.8887,2.8891,2.8882,2.8879,2.8884,2.8962,2.8964,2.8965,2.8967,0,2.8574,2.857,2.8608,2.8647,2.8679,2.8709,2.8736,2.8761,2.8749,2.8783,2.8833,2.8861,2.8916,2.8962,2.9002,2.9014,2.8989,2.8986,2.9003,2.9008,2.9009,2.9009,2.8804,2.8982,2.898,2.8979,2.8978,2.8978,2.8689,2.8731,2.8753,2.8797,2.8816,2.8842,2.8882,2.8887,2.8928,2.8971,2.8961,2.9017,2.904,2.909,2.9107,2.9151,2.9126,2.9149,2.9155,2.9161,2.9168,2.9002,2.9158,2.9157,2.9157,2.9157,2.9156,0,2.8844,2.8856,2.8898,2.8936,2.8972,2.8945,2.8974,2.9005,2.9054,2.9078,2.9114,2.9171,2.9216,2.9225,2.9268,2.9302,2.9291,2.9313,2.9311,2.9314,2.9188,2.917,2.9321,2.9321,2.9321,2.9321,2.9321,2.9321,2.8929,2.8999,2.8997,2.9077,2.9089,2.9143,2.9161,2.9186,2.9204,2.9269,2.9306,2.9312,2.933,2.9374,2.9415,2.9416,2.9433,2.946,2.9457,2.9339,2.9323,2.9307,2.929,2.9464,2.9464,2.958,2.9581,2.9582]},{"header":{"parameterUnit":"m.s-1","parameterCategory":1,"la1":30.2991,"la2":30.254,"lo1":-89.0895,"lo2":-89.0444,"dy":0.0017,"dx":0.0017,"nx":28,"ny":28,"refTime":"2024-07-31T09:00:00:Z","depth":0,"parameterNumber":3,"parameterNumberName":"V-component_of_WINDS"},"data":[0,0,0,0,0,0,0,0,0,0,0,0,0,0,0,0,0,0,0,0,0,0,0,0,0,0,0,0,0,0,0,0,0,0,0,0,0,0,0,0,0,0,0,0,0,0,0,0,0,0,0,0,0,0,0,0,0,0,-1.709,-1.709,0,-1.709,-1.709,-1.7091,-1.704,-1.7038,-1.7037,-1.7036,-1.7037,-1.7038,-1.7039,0,0,0,0,0,0,0,0,0,0,0,0,0,-1.7045,-1.7046,-1.709,-1.709,-1.709,-1.709,-1.709,-1.7091,-1.704,-1.7038,-1.7037,-1.7035,-1.7036,-1.7038,-1.7039,0,0,0,0,0,0,0,0,0,0,0,0,0,-1.7057,-1.7046,-1.709,-1.7065,-1.7062,-1.709,-1.709,-1.7091,-1.704,-1.7038,-1.7036,-1.7034,-1.7036,-1.7038,-1.7039,-1.7092,0,0,-1.7045,-1.7046,0,0,0,0,0,0,0,0,-1.7056,-1.7058,-1.7068,-1.7066,-1.7064,-1.7063,-1.7075,-1.7091,-1.7041,-1.7049,-1.7036,-1.7033,-1.7047,-1.7048,-1.7052,-1.7092,-1.7092,-1.7045,-1.7047,-1.7047,-1.7048,0,0,0,0,0,0,0,-1.7055,-1.7058,-1.709,-1.7069,-1.7066,-1.7053,-1.7053,-1.7078,-1.7059,-1.7048,-1.7044,-1.7045,-1.7045,-1.7051,-1.7052,-1.7092,-1.7045,-1.7047,-1.7048,-1.7049,-1.7174,-1.7176,0,0,0,0,0,0,-1.7058,-1.7058,-1.709,-1.709,-1.7055,-1.7056,-1.7055,-1.7065,-1.7059,-1.7056,-1.7047,-1.7043,-1.7048,-1.705,-1.7052,-1.7113,-1.7047,-1.7049,-1.705,-1.7172,-1.7174,-1.7177,0,0,0,0,0,0,-1.7057,-1.7061,-1.709,-1.7073,-1.7076,-1.7059,-1.707,-1.7066,-1.7072,-1.7058,-1.7054,-1.7055,-1.7047,-1.7049,-1.7082,-1.7112,-1.705,-1.7052,-1.7169,-1.7173,-1.7176,-1.7235,0,0,0,0,0,0,-1.7056,-1.7061,-1.7081,-1.7074,-1.7077,-1.712,-1.7072,-1.7068,-1.7075,-1.707,-1.7065,-1.7062,-1.7046,-1.708,-1.7084,-1.7113,-1.7053,-1.7166,-1.7171,-1.7174,-1.723,-1.724,-1.7248,0,0,0,0,0,-1.7055,-1.7098,-1.7082,-1.7086,-1.7101,-1.7122,-1.7124,-1.7103,-1.7078,-1.7097,-1.7088,-1.7063,-1.7108,-1.7083,-1.7088,-1.7118,-1.7164,-1.7169,-1.7174,-1.7226,-1.7238,-1.7247,0,0,0,0,0,0,-1.7109,-1.7096,-1.7079,-1.7121,-1.7123,-1.7114,-1.7138,-1.7116,-1.7126,-1.7121,-1.7095,-1.7094,-1.7131,-1.7128,-1.7101,-1.7169,-1.7132,-1.7138,-1.7169,-1.718,-1.7189,-1.7189,-1.7055,0,0,0,0,0,-1.7126,-1.7144,-1.7132,-1.717,-1.7172,-1.7155,-1.7163,-1.7147,-1.7148,-1.7149,-1.7143,-1.7145,-1.7159,-1.717,-1.7182,-1.7229,-1.7228,-1.7252,-1.7261,-1.7269,-1.7274,-1.7299,-1.731,-1.7193,-1.7193,-1.7193,0,0,-1.7161,-1.7156,-1.7169,-1.7181,-1.718,-1.72,-1.7156,-1.7178,-1.7193,-1.7152,-1.7183,-1.7179,-1.7179,-1.722,-1.7237,-1.7218,-1.7306,-1.7275,-1.7281,-1.7282,-1.7305,-1.7316,-1.7326,-1.7196,-1.7195,-1.7195,0,0,-1.7234,-1.7233,-1.7264,-1.7265,-1.7265,-1.7253,-1.7261,-1.7255,-1.725,-1.7281,-1.7251,-1.7268,-1.7293,-1.7295,-1.7299,-1.7374,-1.7351,-1.7379,-1.7425,-1.745,-1.7459,-1.7467,-1.7494,-1.7504,-1.7384,-1.7385,-1.7385,0,-1.7278,-1.7306,-1.7283,-1.7308,-1.7314,-1.7278,-1.731,-1.7312,-1.7316,-1.7321,-1.73,-1.7332,-1.733,-1.737,-1.7388,-1.7393,-1.7401,-1.7379,-1.7459,-1.7467,-1.7474,-1.75,-1.751,-1.7388,-1.7388,-1.7387,-1.7387,0,-1.7359,-1.7379,-1.7405,-1.741,-1.7419,-1.7447,-1.7429,-1.7441,-1.7424,-1.7415,-1.7446,-1.7442,-1.7454,-1.7462,-1.7446,-1.75,-1.7488,-1.7464,-1.7426,-1.7489,-1.7513,-1.7522,-1.7393,-1.7392,-1.7391,-1.739,0,0,-1.7467,-1.746,-1.7469,-1.7471,-1.7469,-1.7484,-1.7511,-1.7522,-1.7532,-1.7537,-1.7558,-1.7581,-1.7558,-1.7563,-1.7547,-1.7568,-1.7628,-1.7541,-1.7541,-1.7557,-1.7688,-1.7706,-1.7718,-1.7612,-1.7614,-1.7616,-1.7688,0,-1.7539,-1.7584,-1.7564,-1.7611,-1.7629,-1.7596,-1.7619,-1.762,-1.7612,-1.7627,-1.7618,-1.7634,-1.7603,-1.7606,-1.7625,-1.7617,-1.7654,-1.7611,-1.7633,-1.7634,-1.7634,-1.773,-1.775,-1.7818,-1.7696,-1.7698,-1.7699,0,-1.7628,-1.7636,-1.7685,-1.768,-1.7687,-1.7708,-1.7717,-1.7731,-1.7731,-1.7724,-1.773,-1.7709,-1.7734,-1.7697,-1.7732,-1.7704,-1.7711,-1.7708,-1.771,-1.7712,-1.767,-1.7734,-1.7839,-1.785,-1.7713,-1.7712,-1.7711,0,-1.7703,-1.7726,-1.7758,-1.7761,-1.7755,-1.7771,-1.7769,-1.7767,-1.7775,-1.7783,-1.7788,-1.7799,-1.7805,-1.7813,-1.7796,-1.777,-1.7833,-1.7794,-1.7828,-1.7829,-1.7843,-1.7843,-1.7952,-1.7848,-1.7848,-1.7848,-1.7847,0,-1.7785,-1.7816,-1.7791,-1.7811,-1.7845,-1.7822,-1.7857,-1.7851,-1.785,-1.7869,-1.784,-1.7858,-1.7834,-1.7849,-1.7835,-1.7867,-1.787,-1.7865,-1.7861,-1.7867,-1.7868,-1.7872,-1.7867,-1.785,-1.785,-1.7849,-1.7849,0,-1.7873,-1.7858,-1.7891,-1.7883,-1.7882,-1.7907,-1.79,-1.7918,-1.7908,-1.7932,-1.7936,-1.792,-1.7937,-1.792,-1.7936,-1.7927,-1.7969,-1.7958,-1.7969,-1.7966,-1.8001,-1.7998,-1.8116,-1.8131,-1.8018,-1.8019,-1.802,0,-1.7927,-1.795,-1.7945,-1.7955,-1.7955,-1.7972,-1.798,-1.7958,-1.7968,-1.797,-1.7988,-1.8003,-1.8013,-1.8041,-1.8031,-1.8043,-1.8033,-1.8073,-1.8034,-1.804,-1.8034,-1.8033,-1.8035,-1.8081,-1.8083,-1.8084,-1.8085,0,-1.8024,-1.8015,-1.8028,-1.8038,-1.8049,-1.8056,-1.806,-1.807,-1.8048,-1.806,-1.8077,-1.8085,-1.8101,-1.8116,-1.8125,-1.8123,-1.81,-1.8097,-1.8105,-1.8113,-1.8118,-1.8116,-1.7991,-1.8094,-1.8093,-1.8093,-1.8092,-1.8092,-1.8097,-1.8116,-1.8115,-1.8131,-1.8132,-1.8137,-1.8154,-1.8146,-1.8159,-1.8171,-1.8157,-1.8178,-1.8178,-1.8187,-1.8188,-1.8204,-1.8187,-1.8199,-1.8203,-1.8206,-1.8211,-1.8116,-1.8206,-1.8205,-1.8205,-1.8205,-1.8205,0,-1.8193,-1.8191,-1.8205,-1.8212,-1.8224,-1.8202,-1.8206,-1.8218,-1.8236,-1.8238,-1.8249,-1.8268,-1.8282,-1.8274,-1.8286,-1.83,-1.829,-1.8304,-1.8303,-1.8303,-1.8226,-1.8217,-1.8312,-1.8312,-1.8312,-1.8312,-1.8312,-1.8312,-1.8244,-1.8276,-1.8267,-1.8299,-1.8296,-1.8316,-1.8321,-1.8325,-1.8326,-1.835,-1.8361,-1.8355,-1.8353,-1.8365,-1.8377,-1.8374,-1.838,-1.8397,-1.8391,-1.8319,-1.8308,-1.8298,-1.829,-1.8399,-1.8399,-1.8467,-1.8467,-1.8468]}]]